Regional Weather Roundup
Issued by NWS Cleveland, OH

Home | Current Version | Previous Version | Text Only | Print | Product List | Glossary On
Versions: 1 2 3 4 5 6 7 8 9 10 11 12 13 14 15 16 17 18 19 20 21 22 23 24 25 26 27 28 29 30 31 32 33 34 35 36 37 38 39 40 41 42 43 44 45 46 47 48 49 50
000
ASUS41 KCLE 181712
RWRCLE
OHIO REGIONAL WEATHER ROUNDUP
NATIONAL WEATHER SERVICE WILMINGTON, OH
1200 PM EST MON NOV 18 2019

NOTE: "FAIR" INDICATES FEW OR NO CLOUDS BELOW 12,000 FEET WITH NO
SIGNIFICANT WEATHER AND/OR OBSTRUCTIONS TO VISIBILITY.

OHZ001>008-015>018-024>027-034-035-043-044-181800-
   NORTHWEST OHIO

CITY           SKY/WX    TMP DP  RH WIND       PRES   REMARKS
DEFIANCE       FAIR      47  32  56 CALM      29.76F
FINDLAY        FAIR      48  35  60 MISG      29.74F
TOLEDO EXPRESS FAIR      50  31  48 W3        29.75F
TOLEDO EXEC    FAIR      45  35  68 W3        29.77F
LIMA           FAIR      46  32  58 W5        29.75F
$$

OHZ009>014-019>023-028>033-038-089-181800-
   NORTHEAST OHIO

CITY           SKY/WX    TMP DP  RH WIND       PRES   REMARKS
CLE-HOPKINS    FAIR      49  31  49 CALM      29.76F
CLE-LAKEFRONT  FAIR      46  33  60 N7        29.74F
CUY CO. ARPT   MOSUNNY   45  34  65 E3        29.74F
LORAIN-ELYRIA  FAIR      48  29  47 CALM      29.74F
ASHTABULA      FAIR      40  32  73 VRB5      29.77F
AKRON-CANTON   FAIR      47  33  58 VRB3      29.73F
WOOSTER        FAIR      47  31  53 CALM      29.73F
MANSFIELD      FAIR      51  28  41 SW6       29.73F
YOUNGSTOWN     PTSUNNY   42  31  64 SW6       29.74F
$$

OHZ042-051>053-060>062-070>072-077>081-181800-
  SOUTHWEST OHIO

CITY           SKY/WX    TMP DP  RH WIND       PRES   REMARKS
CINC-COVINGTON CLOUDY    45  32  60 SW3       29.78F
CINC-LUNKEN    PTSUNNY   45  35  68 S6        29.80F
HAMILTON       CLOUDY    44  32  62 SW3       29.80F
DAYTON         PTSUNNY   45  32  60 W3        29.77F
WRIGHT-PAT AFB NOT AVBL
DAYTON GENERAL CLOUDY    43  31  62 CALM      29.76F
WILMINGTON     PTSUNNY   44  32  62 W8        29.76F
$$

OHZ036-037-039>041-045>050-054>059-063>069-073>076-082>088-181800-
  CENTRAL AND SOUTHEAST OHIO

CITY           SKY/WX    TMP DP  RH WIND       PRES   REMARKS
COLUMBUS       PTSUNNY   46  29  51 VRB5      29.75F
OSU AIRPORT    FAIR      47  29  49 SW5       29.75F
BOLTON FIELD   SUNNY     46  34  61 SW5       29.76F
RICKENBACK AFB FAIR      46  33  59 SW3       29.76F
NEWARK         FAIR      50  30  46 SW5       29.73F
MARION         FAIR      48  29  47 VRB3      29.74F
LANCASTER      FAIR      48  31  51 SW5       29.75F
ZANESVILLE     FAIR      51  31  46 CALM      29.74F
NEW PHILLY     FAIR      47  31  53 E3        29.74F
$$



USA.gov is the U.S. government's official web portal to all federal, state and local government web resources and services.